Location: Gallinara
(44.0333°N, 8.2333°E)
Time: 11:01:14
(UTC+00:00)

CZ-4C R/B - Pass Details

Date: 25 September 2020
Orbit: 407 x 491 km, 97.7° (Epoch: 24 October)

Event Time Altitude Azimuth Distance (km) Brightness Sun altitude
Exits shadow 03:19:29 38° 342° (NNW) 743 3.9 -21.7°
Drops below altitude 10° 03:21:46 10° 346° (NNW) 1,648 5.8 -21.3°
Sets 03:23:49 0° 347° (NNW) 2,517 6.8 -21.0°
